Theta_e
317 314 313 315 314 313 313 314 317 317 317 317 316 317 316 312 313 313 311 309 310 308
315 315 314 316 316 314 316 315 316 317 316 317 315 316 316 313 314 313 313 311 308 306
315 315 315 316 316 316 316 317 316 316 316 316 316 316 316 314 313 311 311 311 312 311
313 314 315 315 315 316 317 317 316 315 315 315 315 314 315 314 312 308 309 312 311 311
314 314 314 314 315 316 316 316 316 316 315 314 313 313 312 312 311 310 309 310 310 310
313 313 313 314 315 316 315 316 316 315 313 312 312 312 312 312 311 311 311 310 310 310
311 312 313 314 314 314 314 314 315 314 312 311 311 310 310 311 312 310 311 311 311 310
312 312 312 312 313 313 313 313 313 313 311 311 310 307 308 310 311 310 310 310 310 310
310 311 311 311 312 312 312 312 313 312 311 311 309 301 301 304 311 309 307 308 306 309
310 309 310 310 310 310 310 311 310 310 308 308 308 299 299 301 310 310 308 305 307 307
309 308 309 309 308 308 307 306 306 306 305 303 302 299 298 299 310 310 308 307 306 307
308 307 307 305 303 305 306 305 303 302 302 301 302 298 297 301 308 308 306 306 307 303
308 304 299 301 303 305 303 302 302 300 301 301 301 298 297 300 305 305 303 304 302 300
305 304 305 303 303 301 299 299 299 300 301 301 299 302 297 296 301 300 300 301 300 300
Wind_Speed
7 6 7 6 6 6 6 6 7 8 8 9 9 9 7 6 7 7 5 7 8 7
5 6 7 7 7 6 7 7 8 10 10 10 8 8 7 6 7 7 5 6 6 4
7 7 7 8 9 9 9 9 10 10 10 10 8 7 7 6 5 8 5 6 7 7
8 8 8 8 9 9 9 9 9 8 9 8 7 6 7 5 4 4 7 8 7 9
7 7 8 9 10 9 9 9 9 8 8 6 5 6 7 7 6 6 6 9 9 10
7 8 8 9 9 8 9 8 8 7 6 5 5 6 7 8 8 7 6 6 9 10
7 8 8 9 9 9 10 9 7 6 5 5 6 7 10 11 10 6 4 6 8 10
7 8 8 8 9 10 10 9 9 7 5 6 4 8 10 12 9 6 5 6 8 9
10 9 7 7 9 10 10 11 10 9 9 9 6 8 11 12 9 2 5 6 9 11
10 9 7 8 8 9 10 11 10 10 9 8 6 10 11 14 10 4 5 6 8 9
10 9 7 8 9 9 10 8 8 11 11 10 7 10 11 14 9 4 5 6 7 9
10 11 10 11 10 10 9 8 8 7 6 6 6 11 12 12 3 4 6 6 10 9
9 9 6 5 7 8 9 8 4 4 4 6 8 9 12 13 7 7 7 9 8 10
7 6 9 8 7 9 7 5 4 4 5 6 5 6 10 13 7 5 4 5 5 5
Wind_Direction
312 309 295 351 325 308 314 323 334 305 310 313 313 307 323 307 337 333 350 353 351 339
341 340 341 323 312 314 304 323 310 310 304 299 299 296 307 308 327 355 336 358 349 314
333 331 329 320 319 314 308 304 302 299 294 290 289 290 307 315 333 352 353 344 328 338
335 325 319 315 313 305 295 290 288 290 287 290 301 312 308 306 309 5 322 314 334 331
324 321 320 316 308 308 300 302 295 286 297 305 346 302 313 307 311 283 304 316 323 342
331 322 321 320 322 317 312 314 321 326 340 351 337 333 327 313 304 291 291 305 318 328
334 325 332 332 336 334 339 332 334 336 357 357 351 8 347 330 323 303 310 298 314 320
326 326 331 342 347 345 339 332 330 329 337 342 341 33 347 328 340 326 317 314 303 322
323 316 346 337 345 350 343 348 342 341 335 339 32 24 344 328 324 330 311 324 326 314
319 332 335 343 347 357 350 345 347 342 354 359 356 11 336 325 302 265 289 314 312 334
337 332 341 358 360 354 353 344 337 9 11 7 358 358 332 319 303 306 299 313 347 348
359 14 14 12 0 346 333 351 23 2 7 334 339 3 333 319 304 300 16 23 18 357
20 26 9 330 337 343 4 16 7 352 360 314 24 4 351 352 17 23 18 16 3 14
35 341 7 351 1 8 350 348 334 6 356 31 38 35 13 9 30 15 5 13 13 22